TimeAKST,TemperatureF,Dew PointF,Humidity,Sea Level PressureIn,VisibilityMPH,Wind Direction,Wind SpeedMPH,Gust SpeedMPH,PrecipitationIn,Events,Conditions,WindDirDegrees,DateUTC
12:53 AM,28.9,26.1,89,29.62,10.0,NNE,3.5,-,0.00,,Overcast,30,2014-01-15 09:53:00
1:53 AM,30.0,25.0,82,29.65,10.0,North,4.6,-,N/A,,Overcast,350,2014-01-15 10:53:00
2:53 AM,27.0,23.0,85,29.67,10.0,North,6.9,-,N/A,,Mostly Cloudy,10,2014-01-15 11:53:00
3:53 AM,25.0,19.9,81,29.69,10.0,NNE,4.6,-,N/A,,Mostly Cloudy,20,2014-01-15 12:53:00
4:53 AM,25.0,19.9,81,29.70,10.0,North,6.9,-,N/A,,Clear,10,2014-01-15 13:53:00
5:53 AM,26.1,21.9,84,29.69,10.0,North,8.1,-,N/A,,Clear,350,2014-01-15 14:53:00
6:53 AM,26.1,21.9,84,29.69,10.0,North,5.8,-,N/A,,Overcast,350,2014-01-15 15:53:00
7:53 AM,28.0,21.9,78,29.69,10.0,North,9.2,-,N/A,,Mostly Cloudy,350,2014-01-15 16:53:00
8:53 AM,30.0,21.9,72,29.70,10.0,NNW,11.5,-,N/A,,Overcast,340,2014-01-15 17:53:00
9:53 AM,30.9,23.0,72,29.70,10.0,NNW,6.9,-,N/A,,Overcast,340,2014-01-15 18:53:00
10:53 AM,32.0,27.0,82,29.70,10.0,NNE,15.0,25.3,N/A,,Overcast,30,2014-01-15 19:53:00
11:53 AM,33.1,27.0,78,29.68,10.0,NNE,17.3,-,N/A,,Overcast,20,2014-01-15 20:53:00
12:53 PM,34.0,26.1,73,29.65,10.0,North,18.4,26.5,N/A,,Overcast,10,2014-01-15 21:53:00
1:53 PM,36.0,25.0,64,29.65,10.0,North,6.9,17.3,N/A,,Overcast,10,2014-01-15 22:53:00
2:53 PM,34.0,27.0,75,29.65,10.0,North,12.7,20.7,N/A,,Overcast,360,2014-01-15 23:53:00
3:23 PM,33.8,28.4,81,29.63,10.0,North,10.4,19.6,N/A,,Overcast,360,2014-01-16 00:23:00
3:53 PM,33.1,28.0,82,29.64,6.0,NNE,6.9,-,0.00,Snow,Light Snow,20,2014-01-16 00:53:00
4:46 PM,33.8,28.4,81,29.62,4.0,North,11.5,-,0.00,Snow,Light Snow,10,2014-01-16 01:46:00
4:53 PM,33.1,28.0,82,29.63,5.0,North,12.7,-,0.00,Snow,Light Snow,10,2014-01-16 01:53:00
5:23 PM,33.8,28.4,81,29.61,4.0,NNE,19.6,23.0,0.00,Snow,Light Snow,20,2014-01-16 02:23:00
5:48 PM,33.8,28.4,81,29.59,8.0,North,19.6,-,0.01,Snow,Light Snow,10,2014-01-16 02:48:00
5:53 PM,33.1,28.0,82,29.60,8.0,NNE,19.6,26.5,0.01,Snow,Light Snow,20,2014-01-16 02:53:00
6:53 PM,35.1,27.0,72,29.58,10.0,North,17.3,26.5,0.00,,Overcast,10,2014-01-16 03:53:00
7:53 PM,36.0,26.1,67,29.59,10.0,North,13.8,-,N/A,,Mostly Cloudy,350,2014-01-16 04:53:00
8:53 PM,34.0,25.0,70,29.59,10.0,NNW,9.2,18.4,N/A,,Scattered Clouds,340,2014-01-16 05:53:00
9:53 PM,46.0,28.0,50,29.58,10.0,SE,26.5,39.1,N/A,,Clear,130,2014-01-16 06:53:00
10:00 PM,46.4,28.4,50,29.56,10.0,SE,28.8,42.6,N/A,,Clear,130,2014-01-16 07:00:00
10:53 PM,46.0,28.0,50,29.56,10.0,ESE,15.0,34.5,N/A,,Scattered Clouds,120,2014-01-16 07:53:00
11:53 PM,45.0,27.0,49,29.56,10.0,SE,29.9,43.7,N/A,,Mostly Cloudy,130,2014-01-16 08:53:00